This is the latest recevied weather packets stored in our database for station/object KI2K. If no packets are shown the sender has not sent any weather packets the latest 10 day(s).
| Time | Temp. | Humidity | Pressure | Rain* | Wind** | Luminosity | Snow |
|---|---|---|---|---|---|---|---|
| 1778157813 | 8.33° C | 72% | 1016 hPa | 0 mm | - | 211 W/m² | - |
| 1778157512 | 8.33° C | 70% | 1016 hPa | 0 mm | - | 189 W/m² | - |
| 1778157208 | 7.78° C | 73% | 1015.8 hPa | 0 mm | - | 178 W/m² | - |
| 1778156905 | 7.78° C | 76% | 1016.2 hPa | 0 mm | - | 161 W/m² | - |
| 1778156600 | 6.67° C | 79% | 1016 hPa | 0 mm | - | 147 W/m² | - |
| 1778156296 | 6.67° C | 84% | 1016 hPa | 0 mm | - | 154 W/m² | - |
| 1778155992 | 5.56° C | 88% | 1015.7 hPa | 0 mm | - | 95 W/m² | - |
| 1778155689 | 5° C | 92% | 1015.9 hPa | 0 mm | - | 101 W/m² | - |
| 1778155385 | 4.44° C | 95% | 1015.7 hPa | 0 mm | - | 72 W/m² | - |
| 1778155082 | 3.89° C | 96% | 1015.8 hPa | 0 mm | - | 61 W/m² | - |
| 1778154777 | 3.89° C | 96% | 1015.8 hPa | 0 mm | - | 41 W/m² | - |
| 1778154473 | 3.89° C | 97% | 1015.7 hPa | 0 mm | - | 39 W/m² | - |
| 1778154171 | 3.33° C | 97% | 1015.7 hPa | 0 mm | - | 41 W/m² | - |
| 1778153868 | 3.33° C | 98% | 1015.7 hPa | 0 mm | - | 46 W/m² | - |
| 1778153564 | 2.78° C | 98% | 1015.6 hPa | 0 mm | - | 39 W/m² | - |
| 1778153262 | 2.78° C | 98% | 1015.5 hPa | 0 mm | - | 29 W/m² | - |
| 1778152959 | 2.78° C | 98% | 1015.4 hPa | 0 mm | - | 28 W/m² | - |
| 1778152657 | 2.78° C | 99% | 1015.4 hPa | 0 mm | - | 21 W/m² | - |
| 1778152353 | 2.22° C | 99% | 1015.8 hPa | 0 mm | - | 23 W/m² | - |
| 1778152049 | 2.22° C | 99% | 1015.4 hPa | 0 mm | - | 15 W/m² | - |
| 1778151746 | 1.67° C | 99% | 1015.3 hPa | 0 mm | - | 13 W/m² | - |
| 1778151443 | 1.67° C | 99% | 1015.4 hPa | 0 mm | - | 8 W/m² | - |
| 1778151138 | 1.67° C | 98% | 1015.4 hPa | 0 mm | - | 4 W/m² | - |
| 1778150836 | 1.67° C | 98% | 1015.6 hPa | 0 mm | - | 3 W/m² | - |
| 1778150527 | 1.67° C | 98% | 1015.7 hPa | 0 mm | - | 1 W/m² | - |
* Rain latest hour (hover to see other rain measurements)
** Current wind speed in m/s (hover to see current wind gust speed)